Location: Paderno d�Adda
(45.6667°N, 9.4333°E)
Time: 14:39:19
(UTC+00:00)

Cosmos 1536 Rocket - Pass Details

Date: 19 September 2020
Orbit: 606 x 632 km, 82.5° (Epoch: 30 October)

Event Time Altitude Azimuth Distance (km) Brightness Sun altitude
Rises 18:49:31 0° 354° (N) 2,917 7.3 -15.3°
Reaches altitude 10° 18:51:47 10° 358° (N) 2,009 6.4 -15.7°
Maximum altitude 18:56:12 61° 79° (E) 717 3.6 -16.4°
Enters shadow 18:59:00 22° 154° (SSE) 1,397 5.0 -16.9°
